When you browse on this site, cookies collect data to enhance your experience and personalize the content and advertising you see.
Visit our Privacy Policy to learn more. By continuing to use the site, you agree to this use of cookies and data.
  • In Schweiz
  • Länderverzeichnis
  • Für 7 Tage
  • Wassertemperatur
  • Wetterkarte
  • Widgets
  • user-avatar
    Anmelden

    Stündliche Wetter Tvericy

    Heute, 19 August, Montag

    Zeit Temperatur Niederschläge Wind Luftdruck Luftfeuchtigkeit
    00:00 +14°C° 0 mm 2 m/S 740 mmHg 96%
    01:00 +14°C° 0 mm 2 m/S 741 mmHg 96%
    02:00 +13°C° 0 mm 1 m/S 741 mmHg 96%
    03:00 +13°C° 0 mm 1 m/S 741 mmHg 95%
    04:00 +13°C° 0 mm 1 m/S 742 mmHg 95%
    05:00 +13°C° 0 mm 1 m/S 742 mmHg 95%
    06:00 +14°C° 0 mm 1 m/S 742 mmHg 91%
    07:00 +16°C° 0 mm 1 m/S 742 mmHg 87%
    08:00 +19°C° 0 mm 1 m/S 743 mmHg 81%
    09:00 +19°C° 0 mm 2 m/S 743 mmHg 75%
    10:00 +21°C° 0 mm 2 m/S 743 mmHg 69%
    11:00 +22°C° 0 mm 3 m/S 743 mmHg 63%
    12:00 +24°C° 0 mm 3 m/S 743 mmHg 63%
    13:00 +25°C° 0 mm 3 m/S 743 mmHg 63%
    14:00 +26°C° 0 mm 3 m/S 743 mmHg 63%
    15:00 +25°C° 0 mm 3 m/S 743 mmHg 67%
    16:00 +25°C° 0 mm 3 m/S 744 mmHg 70%
    17:00 +25°C° 0 mm 2 m/S 744 mmHg 74%
    18:00 +23°C° 0 mm 2 m/S 744 mmHg 80%
    19:00 +21°C° 0 mm 2 m/S 744 mmHg 85%
    20:00 +19°C° 0 mm 2 m/S 744 mmHg 91%
    21:00 +19°C° 0 mm 2 m/S 744 mmHg 91%
    22:00 +18°C° 0 mm 3 m/S 744 mmHg 90%
    23:00 +18°C° 0 mm 3 m/S 744 mmHg 90%

    Morgen, 20 August, Dienstag

    Zeit Temperatur Niederschläge Wind Luftdruck Luftfeuchtigkeit
    00:00 +18°C° 0 mm 2 m/S 744 mmHg 91%
    01:00 +17°C° 0 mm 2 m/S 744 mmHg 92%
    02:00 +17°C° 0 mm 2 m/S 745 mmHg 93%
    03:00 +16°C° 0.5 mm 2 m/S 745 mmHg 94%
    04:00 +16°C° 0.5 mm 2 m/S 745 mmHg 95%
    05:00 +16°C° 0.5 mm 2 m/S 745 mmHg 96%
    06:00 +17°C° 0.6 mm 2 m/S 745 mmHg 94%
    07:00 +18°C° 0.6 mm 2 m/S 745 mmHg 93%
    08:00 +20°C° 0.6 mm 2 m/S 746 mmHg 91%
    09:00 +21°C° 0.2 mm 2 m/S 746 mmHg 87%
    10:00 +23°C° 0.2 mm 2 m/S 746 mmHg 83%
    11:00 +25°C° 0.2 mm 2 m/S 746 mmHg 79%
    12:00 +25°C° 0.5 mm 2 m/S 746 mmHg 81%
    13:00 +25°C° 0.5 mm 2 m/S 746 mmHg 82%
    14:00 +26°C° 0.5 mm 2 m/S 746 mmHg 83%
    15:00 +25°C° 0.5 mm 2 m/S 746 mmHg 86%
    16:00 +24°C° 0.5 mm 1 m/S 746 mmHg 88%
    17:00 +23°C° 0.5 mm 1 m/S 746 mmHg 91%
    18:00 +23°C° 0.1 mm 1 m/S 746 mmHg 91%
    19:00 +22°C° 0.1 mm 1 m/S 746 mmHg 92%
    20:00 +21°C° 0.1 mm 1 m/S 746 mmHg 92%
    21:00 +21°C° 0 mm 1 m/S 747 mmHg 93%
    22:00 +20°C° 0 mm 1 m/S 747 mmHg 93%
    23:00 +20°C° 0 mm 1 m/S 747 mmHg 94%

    übermorgen, 21 August, Mittwoch

    Zeit Temperatur Niederschläge Wind Luftdruck Luftfeuchtigkeit
    00:00 +20°C° 0 mm 1 m/S 747 mmHg 94%
    01:00 +20°C° 0 mm 1 m/S 747 mmHg 95%
    02:00 +19°C° 0 mm 1 m/S 747 mmHg 95%
    03:00 +19°C° 0 mm 1 m/S 747 mmHg 95%
    04:00 +19°C° 0 mm 1 m/S 747 mmHg 95%
    05:00 +18°C° 0 mm 2 m/S 747 mmHg 95%
    06:00 +19°C° 0 mm 2 m/S 747 mmHg 93%
    07:00 +20°C° 0 mm 2 m/S 747 mmHg 90%
    08:00 +21°C° 0 mm 2 m/S 747 mmHg 88%
    09:00 +23°C° 0 mm 2 m/S 747 mmHg 82%
    10:00 +25°C° 0 mm 3 m/S 747 mmHg 76%
    11:00 +26°C° 0 mm 3 m/S 747 mmHg 69%
    12:00 +27°C° 0 mm 3 m/S 747 mmHg 67%
    13:00 +27°C° 0 mm 3 m/S 747 mmHg 66%
    14:00 +28°C° 0 mm 3 m/S 746 mmHg 64%
    15:00 +28°C° 0 mm 3 m/S 746 mmHg 67%
    16:00 +27°C° 0 mm 3 m/S 746 mmHg 71%
    17:00 +27°C° 0 mm 2 m/S 746 mmHg 74%
    18:00 +25°C° 0 mm 2 m/S 746 mmHg 79%
    19:00 +24°C° 0 mm 2 m/S 745 mmHg 84%
    20:00 +21°C° 0 mm 2 m/S 745 mmHg 89%
    21:00 +20°C° 0 mm 2 m/S 745 mmHg 89%
    22:00 +20°C° 0 mm 2 m/S 745 mmHg 90%
    23:00 +19°C° 0 mm 2 m/S 745 mmHg 91%

    22 August, Donnerstag

    Zeit Temperatur Niederschläge Wind Luftdruck Luftfeuchtigkeit
    00:00 +19°C° 0 mm 2 m/S 745 mmHg 91%
    01:00 +19°C° 0 mm 2 m/S 745 mmHg 91%
    02:00 +18°C° 0 mm 2 m/S 745 mmHg 91%
    03:00 +19°C° 0.4 mm 1 m/S 745 mmHg 92%
    04:00 +19°C° 0.4 mm 1 m/S 745 mmHg 92%
    05:00 +18°C° 0.4 mm 1 m/S 744 mmHg 93%
    06:00 +19°C° 0.5 mm 1 m/S 745 mmHg 93%
    07:00 +19°C° 0.5 mm 1 m/S 745 mmHg 93%
    08:00 +20°C° 0.5 mm 1 m/S 745 mmHg 93%
    09:00 +20°C° 0.3 mm 1 m/S 745 mmHg 91%
    10:00 +21°C° 0.3 mm 1 m/S 746 mmHg 89%
    11:00 +22°C° 0.3 mm 1 m/S 746 mmHg 87%
    12:00 +20°C° 0.3 mm 2 m/S 746 mmHg 89%
    13:00 +19°C° 0.3 mm 3 m/S 746 mmHg 91%
    14:00 +18°C° 0.3 mm 4 m/S 746 mmHg 93%
    15:00 +18°C° 0 mm 4 m/S 746 mmHg 93%
    16:00 +17°C° 0 mm 4 m/S 746 mmHg 93%
    17:00 +17°C° 0 mm 4 m/S 746 mmHg 93%
    18:00 +15°C° 0 mm 4 m/S 746 mmHg 93%
    19:00 +15°C° 0 mm 4 m/S 747 mmHg 93%
    20:00 +16°C° 0 mm 3 m/S 747 mmHg 92%
    21:00 +14°C° 0 mm 3 m/S 747 mmHg 93%
    22:00 +14°C° 0 mm 3 m/S 747 mmHg 95%
    23:00 +13°C° 0 mm 3 m/S 747 mmHg 96%

    23 August, Freitag

    Zeit Temperatur Niederschläge Wind Luftdruck Luftfeuchtigkeit
    00:00 +13°C° 0 mm 3 m/S 747 mmHg 96%
    01:00 +14°C° 0 mm 2 m/S 747 mmHg 96%
    02:00 +13°C° 0 mm 2 m/S 747 mmHg 96%
    03:00 +13°C° 0 mm 2 m/S 747 mmHg 96%
    04:00 +13°C° 0 mm 2 m/S 748 mmHg 97%
    05:00 +13°C° 0 mm 2 m/S 748 mmHg 97%
    06:00 +13°C° 0 mm 3 m/S 748 mmHg 93%
    07:00 +16°C° 0 mm 3 m/S 748 mmHg 89%
    08:00 +17°C° 0 mm 3 m/S 748 mmHg 84%
    09:00 +18°C° 0 mm 3 m/S 748 mmHg 78%
    10:00 +20°C° 0 mm 3 m/S 749 mmHg 71%
    11:00 +21°C° 0 mm 3 m/S 749 mmHg 64%
    12:00 +21°C° 0.1 mm 3 m/S 749 mmHg 63%
    13:00 +22°C° 0.1 mm 3 m/S 749 mmHg 61%
    14:00 +22°C° 0.1 mm 3 m/S 749 mmHg 59%
    15:00 +22°C° 0 mm 3 m/S 749 mmHg 62%
    16:00 +21°C° 0 mm 2 m/S 749 mmHg 65%
    17:00 +21°C° 0 mm 2 m/S 749 mmHg 67%
    18:00 +19°C° 0 mm 2 m/S 749 mmHg 71%
    19:00 +17°C° 0 mm 2 m/S 749 mmHg 75%
    20:00 +15°C° 0 mm 2 m/S 749 mmHg 79%
    21:00 +14°C° 0 mm 2 m/S 749 mmHg 82%
    22:00 +14°C° 0 mm 2 m/S 749 mmHg 85%
    23:00 +13°C° 0 mm 1 m/S 749 mmHg 87%

    24 August, Samstag

    Zeit Temperatur Niederschläge Wind Luftdruck Luftfeuchtigkeit
    00:00 +13°C° 0 mm 1 m/S 750 mmHg 88%
    01:00 +12°C° 0 mm 1 m/S 750 mmHg 89%
    02:00 +12°C° 0 mm 1 m/S 750 mmHg 90%
    03:00 +12°C° 0 mm 1 m/S 750 mmHg 91%
    04:00 +11°C° 0 mm 1 m/S 750 mmHg 91%
    05:00 +11°C° 0 mm 1 m/S 750 mmHg 92%
    06:00 +13°C° 0 mm 1 m/S 750 mmHg 85%
    07:00 +15°C° 0 mm 1 m/S 750 mmHg 79%
    08:00 +18°C° 0 mm 1 m/S 751 mmHg 72%
    09:00 +20°C° 0 mm 1 m/S 751 mmHg 67%
    10:00 +21°C° 0 mm 1 m/S 751 mmHg 62%
    11:00 +22°C° 0 mm 1 m/S 751 mmHg 57%
    12:00 +23°C° 0 mm 1 m/S 751 mmHg 55%
    13:00 +23°C° 0 mm 1 m/S 751 mmHg 54%
    14:00 +24°C° 0 mm 1 m/S 751 mmHg 52%
    15:00 +23°C° 0 mm 1 m/S 751 mmHg 57%
    16:00 +23°C° 0 mm 1 m/S 750 mmHg 62%
    17:00 +23°C° 0 mm 1 m/S 750 mmHg 67%
    18:00 +21°C° 0 mm 1 m/S 750 mmHg 73%
    19:00 +19°C° 0 mm 1 m/S 750 mmHg 79%
    20:00 +15°C° 0 mm 1 m/S 750 mmHg 86%
    21:00 +14°C° 0 mm 0 m/S 750 mmHg 87%
    22:00 +13°C° 0 mm 0 m/S 750 mmHg 88%
    23:00 +13°C° 0 mm 0 m/S 750 mmHg 89%
    Mehr zeigen